GEFSSE_con_prob3kmehi_000.txt.gz
EHI
0 0 0 0 0 0 0 0 1 2 4 8 10 5 1 1 0 0 0 0 0 0 0 0 0 0 0 0 0 0 0 0 0 0 0 0 0 0 0 0 0 0 0
0 0 0 0 0 0 0 0 0 1 2 3 4 2 2 2 1 0 0 0 0 0 0 0 0 0 0 0 0 0 0 0 0 0 0 0 0 0 0 0 0 0 0
0 0 0 0 0 0 0 0 0 0 0 0 0 0 1 2 1 0 0 0 0 0 0 0 0 0 0 0 0 0 0 0 0 0 0 0 0 0 0 0 0 0 0
0 0 0 0 0 0 0 0 0 0 0 0 0 0 0 1 1 0 0 0 0 0 0 0 0 0 0 0 0 0 0 0 0 0 0 0 0 0 0 0 0 0 0
0 0 0 0 0 0 1 2 2 1 0 0 0 0 0 0 0 0 0 0 0 0 0 0 0 0 0 0 0 0 0 0 0 0 0 0 0 0 0 0 0 0 0
0 0 0 0 0 1 4 6 7 5 2 0 0 0 0 0 0 0 0 0 0 0 0 0 0 0 0 0 0 0 0 0 0 0 0 0 0 0 0 0 0 0 0
0 0 0 0 1 2 5 7 9 7 3 0 0 0 0 0 0 0 0 0 0 0 0 0 0 0 0 0 0 0 0 0 0 0 0 0 0 0 0 0 1 2 2
0 0 0 0 1 2 4 5 5 3 1 0 0 0 0 0 0 0 0 0 0 0 0 0 0 0 0 0 0 0 0 0 0 0 0 0 0 0 0 1 4 7 8
0 0 0 0 1 1 2 2 1 0 0 0 0 0 0 0 0 0 0 0 0 0 0 0 0 0 0 0 0 0 0 0 0 0 0 0 0 0 0 0 3 7 8
0 0 0 0 0 1 1 0 0 0 0 0 0 0 0 0 0 0 0 0 0 0 0 0 0 0 0 0 0 0 0 0 0 0 0 0 0 0 0 0 1 3 3
0 0 0 0 1 2 2 1 1 0 0 0 0 0 0 0 0 0 0 0 0 0 0 0 0 0 0 0 0 0 0 0 0 0 0 0 0 0 0 0 0 0 0
0 0 0 0 1 3 4 3 2 1 0 0 0 0 0 0 0 0 0 0 0 0 0 0 0 0 0 0 0 0 0 0 0 0 0 0 0 0 0 0 0 0 0
0 0 0 0 0 2 3 4 3 2 0 0 0 1 0 0 0 0 0 0 0 0 0 0 0 0 0 0 0 0 0 0 0 0 0 0 0 0 0 0 0 0 0
0 0 0 0 0 0 1 2 2 1 0 0 0 0 0 0 0 0 0 0 0 0 0 0 0 0 0 0 0 0 0 0 0 0 0 0 0 0 0 0 0 0 0
0 0 1 1 1 1 0 0 0 0 0 1 0 0 0 0 0 0 0 0 0 0 0 0 0 0 0 0 0 0 0 0 0 1 0 0 1 0 0 0 0 0 0
1 2 3 3 3 2 0 0 0 0 0 0 0 0 0 0 0 0 0 0 0 0 0 0 0 0 0 0 0 0 0 0 0 0 0 0 0 0 0 0 0 1 1
3 4 4 5 5 2 0 0 0 0 0 0 0 0 0 0 0 0 0 0 0 0 0 0 0 0 0 0 0 0 0 0 0 0 0 0 0 1 2 3 3 3 4
4 3 3 6 6 2 0 0 0 0 0 0 0 0 0 0 0 0 0 0 0 0 0 0 0 0 0 0 0 0 0 0 0 0 0 0 1 2 5 8 8 8 8
2 2 2 4 5 3 1 0 0 0 0 0 0 0 0 0 0 0 0 0 0 0 0 0 0 0 0 0 0 0 0 0 0 0 0 0 0 1 4 9 14 14 12
1 1 0 1 3 3 2 1 0 0 0 0 0 0 0 0 0 0 0 0 0 0 0 0 0 0 0 0 0 0 0 0 0 0 0 0 0 0 2 6 11 14 14
1 0 0 0 1 3 3 2 1 1 0 0 1 1 0 0 0 1 0 0 0 0 0 0 0 0 0 0 0 0 0 0 0 0 0 0 0 0 0 2 4 6 8
1 0 0 0 0 1 1 1 1 1 0 1 2 1 0 0 0 0 0 0 0 0 0 0 0 0 0 0 0 0 0 0 0 0 0 0 0 0 0 0 0 1 1
0 0 0 0 0 0 0 0 1 2 1 1 1 1 0 0 0 0 0 0 0 0 0 0 0 0 0 0 0 0 0 0 0 0 0 0 0 0 0 0 0 0 0
0 0 0 0 0 0 0 0 1 2 2 1 0 0 0 0 0 0 0 0 0 0 0 0 0 0 0 0 0 0 0 0 0 0 0 0 0 0 0 0 0 0 0
0 0 0 0 0 0 0 0 0 1 1 0 0 0 0 0 0 0 0 0 0 0 0 0 0 0 0 0 0 0 0 0 0 0 0 0 0 0 0 0 0 0 0
0 0 0 0 0 0 0 0 0 0 0 0 0 0 0 0 0 0 0 0 0 0 0 0 0 0 0 0 0 0 0 0 0 0 0 0 0 0 0 0 0 0 0

GEFSSE_con_prob3kmehi_006.txt.gz
EHI
0 0 0 0 0 0 0 1 2 3 2 1 0 0 0 0 0 0 0 0 0 0 0 0 0 0 0 0 0 0 0 0 0 0 0 0 0 0 0 0 0 0 0
0 0 0 0 0 0 0 1 5 9 8 3 1 0 0 0 0 0 0 0 0 0 0 0 0 0 0 0 0 0 0 0 0 0 0 0 0 0 0 0 0 0 0
0 0 0 0 0 0 0 3 10 15 11 6 1 0 0 0 0 0 0 0 0 0 0 0 0 0 0 0 0 0 0 0 0 0 0 0 0 0 0 0 0 0 0
0 0 0 0 0 0 0 5 13 15 9 4 1 0 0 0 0 0 0 0 0 0 0 0 0 0 0 0 0 0 0 0 0 0 0 0 0 0 0 0 0 0 0
0 0 0 0 0 0 0 4 10 11 5 1 0 0 0 0 0 0 0 0 0 0 0 0 0 0 0 0 0 0 0 0 0 0 0 0 0 0 0 0 0 0 0
0 0 0 0 0 0 0 2 4 5 2 0 0 0 0 0 0 0 0 0 0 0 0 0 0 0 0 0 0 0 0 0 0 0 0 0 3 6 3 0 0 0 0
0 0 0 0 0 0 0 0 1 1 0 0 0 0 0 0 0 0 0 0 0 0 0 0 0 0 0 0 0 0 0 0 0 0 0 0 6 12 6 0 0 0 0
0 0 0 0 0 0 0 0 0 0 0 0 0 0 0 0 0 0 0 0 0 0 0 0 0 0 0 0 0 0 0 0 0 0 0 2 8 11 5 0 0 0 0
0 0 0 0 0 0 0 0 0 0 0 0 0 0 0 0 0 0 0 0 0 0 0 0 0 0 0 0 0 0 0 0 0 0 0 6 12 7 1 0 0 0 0
0 0 0 0 0 0 0 0 0 0 0 0 0 0 0 0 0 0 0 0 0 0 0 0 0 0 0 0 0 0 0 0 0 0 0 6 12 6 0 0 0 0 0
1 0 0 0 0 0 0 0 0 0 0 0 0 0 0 0 0 1 2 1 0 0 0 0 0 0 0 0 0 0 0 0 0 0 1 6 8 4 0 0 0 0 0
6 2 0 0 0 0 0 0 0 0 0 0 0 0 0 0 0 2 3 2 0 0 0 0 0 0 0 0 0 0 0 0 0 0 3 7 5 1 0 0 0 0 0
10 4 0 0 0 0 0 0 0 0 0 0 0 0 0 0 0 1 2 1 0 0 0 0 0 0 0 0 0 0 0 0 0 0 3 5 3 0 0 0 0 0 0
8 5 1 0 0 1 2 1 0 0 1 0 0 0 0 0 0 0 0 0 0 0 0 0 0 0 0 0 0 0 0 0 0 0 2 2 1 0 0 0 0 0 0
5 2 0 0 1 3 4 4 3 2 1 0 0 0 0 0 0 0 0 0 0 0 0 0 0 0 0 0 0 0 0 0 0 0 1 2 1 0 0 0 0 0 0
2 1 0 0 1 3 4 5 5 3 1 0 0 2 3 2 1 1 0 0 0 0 0 0 0 0 0 0 0 0 0 0 0 0 1 2 1 0 0 0 0 0 0
19 19 13 5 1 1 1 2 3 2 0 1 2 5 6 4 3 3 2 0 1 1 0 0 0 0 0 0 0 1 1 1 0 0 0 1 1 0 0 0 0 0 0
58 58 48 29 16 9 6 5 2 0 0 2 5 9 7 4 4 8 7 5 5 5 4 1 0 0 0 0 0 1 2 3 2 0 0 0 0 0 1 1 1 0 0
78 81 79 66 48 34 28 27 22 13 7 5 8 15 16 13 11 15 16 12 10 13 14 8 3 1 0 0 0 1 2 3 3 1 0 0 0 0 2 4 4 2 0
55 65 75 76 70 63 59 62 61 48 34 20 15 22 28 27 24 24 24 17 14 21 23 14 5 3 1 0 0 0 0 1 1 0 0 0 0 0 1 4 7 4 2
25 34 46 53 59 66 72 79 82 75 61 41 27 29 32 32 30 28 26 20 17 23 22 12 4 2 1 0 0 0 0 0 0 0 0 0 0 0 0 2 8 10 9
11 13 19 25 31 40 52 61 66 67 62 49 39 34 31 27 25 24 24 19 16 19 16 7 1 1 0 0 0 0 0 0 0 0 0 0 0 0 0 0 7 14 13
4 4 5 9 14 18 24 29 35 45 48 42 37 33 27 20 16 15 15 12 10 11 10 3 0 0 0 0 0 0 0 0 0 0 0 0 0 0 0 0 4 7 7
0 0 2 6 12 15 14 13 18 28 32 29 26 25 21 14 8 6 5 4 4 4 3 1 0 0 0 0 0 0 0 0 0 0 0 0 0 0 0 0 0 1 1
0 0 1 4 9 13 12 10 12 16 16 14 15 19 16 8 3 1 0 0 0 0 0 0 0 0 0 0 0 0 0 0 0 0 0 0 0 0 0 0 0 0 0
0 0 1 2 4 7 8 8 9 9 7 6 10 16 13 5 1 1 0 0 0 0 0 0 0 0 0 0 0 0 0 0 0 0 0 0 0 0 0 0 0 0 0

GEFSSE_con_prob3kmehi_012.txt.gz
EHI
0 17 36 26 5 0 0 0 0 0 0 0 0 0 0 0 0 0 0 0 0 0 0 0 0 0 0 0 0 0 0 0 0 0 0 0 0 0 0 0 0 0 0
0 18 43 36 10 0 0 0 0 0 0 0 0 0 0 0 0 0 0 0 0 0 0 0 0 0 0 0 0 0 0 0 0 0 0 0 0 0 0 0 0 0 0
0 14 42 47 23 4 0 0 0 0 0 0 0 0 0 0 0 0 0 0 0 0 0 0 0 0 0 0 0 0 0 0 0 0 0 0 0 0 0 0 0 0 0
0 8 34 57 42 12 1 0 0 0 0 0 0 0 0 0 0 0 0 0 0 0 0 0 0 0 0 0 0 0 0 0 0 0 0 0 1 2 1 0 0 0 0
1 6 34 64 57 23 4 0 0 0 0 0 0 0 0 0 0 0 0 0 0 0 0 0 0 0 0 0 0 0 0 0 0 0 0 0 4 10 8 3 0 0 0
3 7 31 62 59 29 7 0 0 0 0 0 0 0 0 0 0 0 0 0 0 0 0 0 0 0 0 0 0 0 0 0 0 0 0 1 14 33 33 16 5 1 0
16 13 25 48 47 23 7 1 0 0 0 0 0 0 0 0 0 0 0 0 0 0 0 0 0 0 0 0 0 0 0 0 0 0 0 6 30 62 63 40 20 8 3
41 31 24 30 27 12 4 2 1 0 0 0 0 0 0 0 0 0 0 0 0 0 0 0 0 0 0 0 0 0 0 0 0 0 0 13 48 79 82 65 46 26 13
60 49 24 11 10 5 3 2 1 0 0 0 0 0 0 0 0 0 0 0 0 0 1 1 1 1 1 2 1 1 0 0 0 0 0 20 62 89 89 80 66 45 28
69 60 29 5 1 1 2 2 1 1 0 0 0 0 0 0 1 2 2 1 1 2 7 10 9 9 9 7 6 4 2 1 0 0 1 26 70 95 92 82 66 48 35
77 70 43 18 9 4 1 2 2 1 0 0 1 3 3 2 2 8 17 25 26 26 32 36 32 27 20 12 11 11 7 2 0 0 7 37 77 95 91 77 56 38 29
86 79 60 46 34 14 7 11 6 2 4 4 5 13 16 8 2 13 41 65 69 63 56 51 45 33 19 9 12 18 10 1 0 1 18 56 87 95 90 77 54 31 20
90 86 77 76 67 37 25 32 23 13 20 24 23 30 34 21 6 16 54 86 91 77 54 39 32 22 9 3 10 18 12 3 1 4 28 68 91 94 90 80 58 31 16
92 88 88 92 89 71 58 60 53 41 47 56 54 49 47 37 17 20 55 85 87 74 53 39 37 30 18 10 12 17 16 10 7 12 37 70 89 92 90 84 66 40 24
93 91 93 98 99 94 88 86 81 74 75 80 81 73 60 54 43 42 67 88 85 71 61 62 65 63 51 36 25 21 20 18 21 32 52 75 90 93 92 88 77 57 43
92 93 96 99 100 100 100 98 95 89 86 88 93 91 82 75 75 78 87 95 90 72 62 72 82 84 77 63 44 29 21 23 36 56 71 83 91 94 94 91 84 72 62
92 95 96 96 98 100 100 98 94 85 77 83 94 98 96 94 96 99 99 99 96 84 74 77 86 87 83 72 59 41 28 30 48 71 85 88 89 91 94 93 88 78 71
91 95 94 88 91 96 98 96 91 80 73 80 92 98 100 100 100 100 100 99 99 96 91 87 87 87 81 73 63 48 35 36 49 67 82 89 89 88 90 92 90 82 74
90 93 91 82 80 88 94 96 92 87 84 88 95 98 99 99 99 100 100 100 100 99 96 91 89 87 83 74 58 40 32 32 38 50 64 73 77 80 81 85 88 85 81
90 92 90 82 77 83 93 97 96 95 95 96 97 98 97 97 98 99 99 100 100 98 96 93 90 88 87 80 58 36 25 21 23 35 47 49 51 57 59 66 77 82 83
90 89 87 83 79 84 94 98 99 98 97 98 98 97 96 96 97 97 97 97 97 96 95 94 92 89 89 86 70 46 23 12 13 26 41 45 41 35 30 36 55 70 76
66 66 67 69 71 77 88 94 95 95 93 93 95 96 95 95 95 94 95 94 93 92 92 93 91 87 85 83 71 47 22 8 8 18 38 53 51 37 20 14 26 47 61
25 27 32 40 49 59 72 78 79 81 81 82 88 93 95 94 94 93 93 92 89 86 84 86 84 77 70 65 52 33 16 7 6 11 25 43 53 46 25 8 8 23 37
3 4 9 17 30 45 54 57 57 58 60 67 77 89 95 96 95 94 93 91 88 80 73 69 66 59 49 39 30 19 10 5 3 4 9 21 34 36 24 8 3 10 17
0 1 4 12 29 42 44 43 44 44 46 53 65 79 90 95 97 95 91 87 79 68 56 48 43 37 27 18 13 9 6 3 1 1 1 6 12 14 12 6 3 7 9
0 0 3 16 35 46 43 40 41 45 46 49 56 69 83 93 98 95 88 80 68 55 44 34 26 19 13 7 5 4 4 2 1 0 0 1 2 2 3 3 3 5 5

GEFSSE_con_prob3kmehi_018.txt.gz
EHI
0 16 39 32 10 1 0 0 0 0 0 0 0 0 0 0 0 0 0 0 0 0 0 0 0 0 0 0 0 0 0 0 0 0 0 0 0 0 0 0 0 0 0
0 14 38 42 24 9 2 0 0 0 0 0 0 0 0 0 0 0 0 0 0 0 0 0 0 0 0 0 0 0 0 0 0 0 0 0 0 0 0 0 0 0 0
2 9 33 54 51 31 13 3 0 0 0 0 0 0 0 0 0 0 0 0 0 0 0 0 0 0 0 0 0 0 0 0 0 0 0 0 0 0 0 0 0 0 0
6 10 33 65 75 60 35 13 2 0 0 0 0 0 0 0 0 0 0 0 0 0 0 0 0 0 0 0 0 0 0 0 0 0 0 0 0 0 0 0 0 0 0
10 18 46 77 88 82 61 31 9 2 0 0 0 0 0 0 0 0 0 0 0 0 0 0 0 0 0 0 0 0 0 0 0 0 0 0 0 0 0 0 0 0 0
10 27 61 87 93 93 80 52 24 8 2 0 0 0 0 0 0 0 0 0 0 0 0 0 0 0 0 0 0 0 0 0 0 0 0 0 0 2 5 5 3 1 1
21 42 74 93 96 96 91 74 48 26 9 2 0 0 0 0 0 0 0 0 0 0 0 0 0 0 0 0 0 0 0 0 0 0 0 0 0 7 18 20 15 10 6
35 58 83 95 98 98 97 90 76 54 28 9 2 0 0 0 0 0 0 0 0 0 0 0 0 0 0 0 0 0 0 0 0 0 0 0 0 10 29 38 34 28 21
30 53 80 93 97 99 99 98 92 78 51 22 5 1 0 0 0 1 2 1 0 0 0 0 0 0 0 0 0 0 0 0 0 0 0 0 0 8 29 48 54 49 45
20 37 66 84 92 95 95 94 91 79 55 27 8 1 0 0 0 1 2 2 1 0 0 0 0 0 0 0 0 0 0 0 0 0 0 0 0 6 29 58 72 70 68
27 35 57 74 80 83 79 73 66 52 33 16 5 1 0 0 0 0 1 1 1 0 0 1 3 2 1 0 0 0 0 0 0 0 0 0 0 7 33 69 87 87 85
42 41 51 64 67 64 53 38 27 18 9 3 1 0 0 0 0 0 0 0 1 0 1 3 5 4 2 0 0 0 0 0 0 0 0 0 2 10 38 73 93 96 94
52 42 40 46 47 38 24 11 6 3 1 0 0 0 0 0 0 0 0 0 1 1 1 2 3 3 1 0 0 0 0 0 0 0 0 1 4 16 42 74 92 97 97
57 41 28 28 24 14 6 2 2 1 0 0 0 0 2 5 5 3 2 0 2 7 11 11 9 6 2 0 0 0 0 0 0 0 0 2 10 26 50 75 91 96 98
59 46 32 23 13 8 8 9 9 9 7 5 3 2 8 19 23 19 11 5 9 22 35 36 28 16 5 0 0 0 0 0 0 0 0 4 17 39 61 79 91 96 97
68 64 53 37 24 23 30 34 34 33 28 23 18 15 23 40 53 52 37 24 27 43 59 60 46 28 12 3 1 0 1 1 1 1 1 4 19 44 68 83 91 94 95
82 82 77 65 53 52 58 62 61 54 45 36 29 27 35 53 73 80 71 56 52 59 66 63 51 36 22 11 5 2 2 3 3 2 2 4 12 33 62 82 90 92 92
90 90 90 86 81 77 73 67 59 48 34 24 19 19 26 40 60 77 83 76 68 65 62 56 48 39 29 19 10 3 1 1 1 1 2 3 7 18 41 66 81 87 89
92 91 88 85 80 73 61 45 33 22 12 6 4 4 8 14 27 49 67 73 73 67 58 50 43 36 28 19 9 3 0 0 0 0 0 2 4 9 20 39 59 71 75
83 78 70 61 51 40 29 18 9 4 1 0 0 0 1 2 7 23 42 59 69 68 59 50 40 30 21 13 5 1 0 0 0 0 0 0 1 3 6 16 31 43 49
58 52 41 31 20 12 7 3 1 0 0 0 0 0 1 1 3 10 23 42 59 65 60 52 43 30 18 9 3 1 0 0 0 0 0 0 0 0 1 5 10 18 23
34 30 24 17 12 8 5 3 1 0 0 0 0 0 0 0 3 7 15 29 46 56 54 48 44 34 20 10 4 2 0 0 0 0 0 0 0 0 0 1 2 6 8
20 20 21 20 17 14 11 7 2 0 0 0 0 0 0 1 3 6 12 22 35 42 39 35 34 29 19 10 5 3 1 0 0 0 0 0 0 0 0 0 0 1 2
12 14 19 22 19 18 14 7 1 0 0 0 0 0 0 0 1 3 8 15 22 24 22 19 18 15 11 7 4 3 1 0 0 0 0 0 0 0 0 0 0 0 0
6 8 14 17 16 15 11 4 0 0 0 0 0 0 0 0 0 0 2 6 9 9 8 7 6 4 4 3 2 1 1 0 0 0 0 0 0 0 0 0 0 0 0
3 6 11 14 13 11 7 2 0 0 0 0 0 0 0 0 0 0 0 1 2 3 3 2 1 1 1 1 1 0 0 0 0 0 0 0 0 0 0 0 0 0 0

GEFSSE_con_prob3kmehi_024.txt.gz
EHI
0 3 7 5 1 0 3 10 16 18 13 5 1 0 0 0 0 0 0 0 0 0 0 0 0 0 0 0 0 0 0 0 0 0 0 0 0 0 0 0 0 0 0
0 3 7 7 4 3 5 9 13 14 9 3 0 0 0 0 0 0 0 0 0 0 0 0 0 0 0 0 0 0 0 0 0 0 0 0 0 0 0 0 0 0 0
0 1 4 7 11 12 11 10 11 9 5 1 0 0 0 0 0 0 0 0 0 0 0 0 0 0 0 0 0 0 0 0 0 0 0 0 0 0 0 0 0 0 0
0 0 2 10 20 25 24 22 19 14 6 2 0 0 0 0 0 0 0 0 0 0 0 0 0 0 0 0 0 0 0 0 0 0 0 0 0 0 0 0 0 0 0
0 0 4 16 28 34 36 37 34 25 12 4 1 0 0 0 0 0 0 0 0 0 0 0 0 0 0 0 0 0 0 0 0 0 0 0 0 0 0 0 0 0 0
1 1 8 23 35 38 40 45 45 33 18 7 1 0 0 0 0 0 0 0 0 0 0 0 0 0 0 0 0 0 0 0 0 0 0 0 0 0 0 0 0 0 0
6 4 12 31 42 42 41 45 47 38 23 10 3 0 0 0 0 0 0 0 0 0 0 0 0 0 0 0 0 0 0 0 0 0 0 0 0 0 0 0 0 0 0
14 13 20 35 46 46 43 42 44 40 28 15 5 1 0 0 0 0 0 0 0 0 0 0 0 0 0 0 0 0 0 0 0 0 0 0 0 0 0 0 0 0 1
15 20 25 33 44 49 48 45 44 42 34 21 8 2 0 0 0 0 0 0 0 0 0 0 0 0 0 0 0 0 0 0 0 0 0 0 0 0 0 0 0 1 3
8 14 20 26 35 45 51 52 53 52 44 30 16 7 2 0 0 0 0 0 0 0 0 0 0 0 0 0 0 0 0 0 0 0 0 0 0 0 0 0 0 1 3
2 4 8 14 24 37 49 57 62 62 56 43 27 14 6 2 0 0 0 0 0 0 0 0 0 0 0 0 0 0 0 0 0 0 0 0 0 0 0 0 0 1 3
0 0 1 5 14 28 42 52 57 60 56 46 33 21 11 4 1 1 0 0 0 0 0 0 0 0 0 0 0 0 0 0 0 0 0 0 0 0 0 0 0 1 2
0 0 0 1 5 15 25 33 39 43 41 35 28 21 13 6 3 2 1 0 0 0 0 0 0 0 0 0 0 0 0 0 0 0 0 0 0 0 0 0 0 0 1
0 0 0 0 1 4 9 13 18 22 23 21 18 15 14 12 7 5 3 2 1 1 1 1 1 2 2 1 0 0 0 0 0 0 0 0 0 0 0 0 0 0 0
4 3 2 2 3 4 4 4 5 7 10 11 8 7 12 16 13 7 4 3 3 3 3 4 3 3 3 2 1 0 0 0 0 0 0 0 0 0 0 0 0 0 0
17 13 7 5 6 7 5 2 0 1 3 4 3 2 6 12 12 6 2 1 3 5 8 9 7 3 2 2 1 0 0 0 0 0 0 0 0 0 0 0 0 0 0
37 28 16 12 11 8 5 3 2 2 3 4 4 2 2 6 7 5 2 3 6 10 12 13 10 6 3 2 2 1 1 2 1 0 0 0 0 0 0 0 0 0 0
49 40 29 24 17 8 5 5 5 7 8 9 9 6 4 5 7 8 9 10 14 18 18 15 16 15 11 8 8 6 5 5 3 1 1 1 0 0 0 0 0 0 0
44 39 33 29 19 8 4 4 4 7 10 11 10 7 5 4 7 11 14 15 19 23 23 20 23 27 23 18 15 11 10 11 8 4 1 0 0 0 0 0 0 1 1
29 28 25 20 13 7 3 2 1 3 5 6 5 3 2 2 3 7 10 12 16 20 23 23 26 30 31 26 16 9 10 13 12 6 2 1 0 0 0 0 0 0 0
16 15 13 10 6 4 2 1 0 0 1 1 1 0 0 1 1 1 3 5 9 13 17 20 26 31 32 26 14 6 6 8 9 6 3 1 0 0 0 0 0 0 0
6 5 5 5 3 2 1 0 0 0 0 0 0 0 0 0 0 0 0 1 3 6 9 13 23 30 29 22 14 6 2 3 3 2 1 1 0 0 0 0 0 0 0
1 1 2 2 2 1 1 1 1 1 0 0 0 0 0 0 0 0 0 0 0 2 3 7 14 22 24 21 16 8 3 1 1 0 0 0 0 0 0 0 0 0 0
1 1 1 1 1 0 2 4 3 2 1 0 0 0 0 0 0 0 0 0 0 0 1 3 7 15 21 23 21 13 6 2 1 0 0 0 0 0 0 0 0 0 0
1 1 1 0 0 0 2 3 3 2 1 0 0 0 0 0 0 0 0 0 0 0 0 1 4 9 17 22 22 17 9 4 2 0 0 0 0 0 0 0 0 0 0
0 1 1 1 0 0 1 1 1 1 0 0 0 0 0 0 0 0 0 0 0 0 0 1 2 5 11 16 19 17 11 5 2 0 0 0 0 0 0 0 0 0 0

GEFSSE_con_prob3kmehi_030.txt.gz
EHI
0 1 2 1 0 0 0 0 1 6 10 7 3 1 0 0 0 0 0 0 0 0 0 0 0 0 0 0 0 0 0 0 0 0 0 0 0 0 0 0 0 0 0
1 2 2 1 0 0 0 2 5 11 12 9 3 1 0 0 0 0 0 0 0 0 0 0 0 0 0 0 0 0 0 0 0 0 0 0 0 0 0 0 0 0 0
1 2 2 1 1 1 2 5 12 16 15 10 5 1 0 0 0 0 0 0 0 0 0 0 0 0 0 0 0 0 0 0 0 0 0 0 0 0 0 0 0 0 0
0 1 2 3 3 4 6 10 15 19 17 12 6 3 1 0 0 0 0 0 0 0 0 0 0 0 0 0 0 0 0 0 0 0 0 0 1 1 1 0 0 0 0
0 1 2 3 4 6 9 13 18 20 19 15 9 6 4 2 1 0 0 0 0 0 0 0 0 0 0 0 0 0 0 0 0 0 0 0 1 2 1 0 0 0 0
0 1 2 4 5 7 11 16 21 24 24 21 17 14 10 6 3 1 0 0 0 0 0 0 0 0 0 0 0 0 0 0 0 0 0 0 1 2 1 0 0 1 1
0 0 2 4 4 6 10 15 21 25 26 27 25 22 17 12 7 3 1 1 0 0 0 0 0 0 0 0 0 0 0 0 0 0 0 0 1 2 1 0 0 0 0
0 0 1 2 2 3 5 9 13 16 19 21 22 21 18 13 8 5 3 2 1 0 0 0 0 0 0 1 1 1 0 0 0 0 0 2 4 3 0 0 0 0 0
0 0 0 0 0 0 1 2 4 5 7 9 11 12 11 9 7 5 4 2 1 0 0 0 0 0 0 1 2 1 0 0 0 0 0 9 18 12 2 0 0 0 0
0 0 0 0 0 0 0 1 1 1 1 2 4 6 5 4 4 4 4 6 4 1 0 0 0 0 0 1 1 1 0 0 0 0 2 21 39 25 5 0 0 0 0
0 0 0 0 0 0 1 2 2 0 0 0 2 3 2 1 2 2 7 14 12 3 0 0 1 1 0 0 0 0 0 0 0 0 9 37 54 33 6 0 0 0 0
0 0 0 0 0 0 1 2 2 1 1 1 1 1 0 0 0 1 8 18 15 4 0 1 2 2 2 1 1 1 1 0 1 1 18 52 61 32 6 0 0 0 0
0 0 0 1 2 2 2 2 2 2 3 2 1 0 2 4 3 2 7 13 12 5 3 5 6 5 4 4 3 2 1 1 2 3 21 51 54 26 6 1 1 0 0
0 0 0 2 7 10 11 10 7 5 3 3 3 3 5 9 7 5 10 13 12 10 10 11 12 10 8 6 4 3 2 2 3 6 19 37 36 18 5 2 1 1 1
0 0 2 7 16 24 28 26 18 11 6 5 6 6 7 10 9 9 15 17 15 17 21 22 20 18 15 11 7 5 4 4 5 7 15 22 20 10 3 1 1 1 1
0 2 7 15 26 36 41 38 26 14 10 8 8 7 6 7 8 10 14 16 17 21 31 35 32 30 27 21 14 9 8 7 6 6 9 13 12 7 2 0 0 1 1
3 8 17 26 36 45 47 40 25 14 11 10 8 7 5 5 7 9 11 13 17 24 35 42 44 44 44 37 27 18 16 15 11 7 8 12 13 9 6 2 1 1 2
11 20 30 35 40 47 47 37 22 13 11 8 7 5 3 3 5 7 9 10 15 22 31 42 52 59 60 54 44 33 30 30 22 15 13 16 18 16 11 7 4 3 4
29 33 36 35 35 38 38 28 16 10 7 5 3 2 2 2 3 3 4 6 9 14 22 34 52 64 65 60 51 42 39 41 37 28 23 22 24 22 14 10 8 6 4
50 44 36 29 27 26 23 16 8 4 3 2 1 1 1 1 1 1 1 2 3 6 11 21 36 48 54 55 49 43 43 44 44 42 38 35 30 22 15 13 13 11 9
57 47 33 25 22 17 14 10 5 3 2 1 0 1 1 0 0 1 0 0 0 2 5 11 17 22 29 40 44 43 41 40 41 46 50 46 35 25 20 19 22 24 22
51 41 28 22 18 13 13 12 9 7 5 2 1 1 1 0 0 0 0 0 0 1 3 5 6 7 11 20 30 33 30 29 29 36 49 52 46 39 29 22 27 33 32
38 30 21 18 18 17 18 17 15 13 8 3 2 2 1 1 1 0 0 0 0 1 1 1 2 3 4 8 16 21 20 16 14 21 37 50 54 49 34 22 22 27 28
25 20 16 16 19 23 27 29 25 17 7 3 3 2 2 2 1 0 0 0 0 0 0 0 0 1 3 4 9 16 15 11 9 11 21 35 43 41 30 21 18 20 23
17 14 11 14 22 31 42 50 45 27 12 7 6 4 3 2 1 0 0 0 0 0 0 0 0 0 1 2 5 9 11 12 12 10 10 17 24 26 25 25 26 28 30
15 11 8 13 25 40 54 65 60 40 23 15 10 6 3 2 1 0 0 0 0 0 0 0 0 0 0 1 3 5 8 13 14 12 9 9 13 19 26 32 35 38 40

GEFSSE_con_prob3kmehi_036.txt.gz
EHI
4 9 15 8 0 0 0 0 0 0 0 0 0 0 0 0 0 0 0 0 0 0 0 0 0 0 0 0 0 0 0 0 0 0 0 0 0 0 0 0 0 0 0
3 8 13 8 1 0 0 0 0 0 0 0 0 0 0 0 0 0 0 0 0 0 0 0 0 0 0 0 0 0 0 0 0 0 0 0 0 0 0 0 0 0 0
1 4 7 6 1 0 0 0 0 0 0 0 0 0 0 0 0 0 0 0 0 0 0 0 0 0 0 0 0 0 0 0 0 0 0 0 0 0 0 0 0 0 0
0 1 2 3 1 0 0 0 0 0 0 0 0 0 0 0 0 0 0 0 0 0 0 0 0 0 0 0 0 0 0 0 0 0 0 0 0 0 0 0 0 0 0
0 0 1 2 1 0 0 0 0 0 0 0 0 0 0 0 0 0 0 0 0 0 0 0 0 0 0 0 0 0 0 0 0 0 0 0 2 2 1 0 0 0 0
1 1 2 3 2 0 0 0 0 0 0 0 0 0 0 0 0 0 0 0 0 0 0 0 0 0 0 0 0 0 0 0 0 0 0 4 13 16 10 4 1 0 0
7 5 5 6 4 0 0 0 0 0 0 0 0 0 0 0 0 0 0 0 0 0 0 0 0 0 0 0 0 0 0 0 0 0 0 12 36 47 33 17 8 3 1
20 14 9 9 6 1 0 0 0 0 0 0 0 0 0 0 0 0 0 0 0 0 0 0 0 0 1 2 2 2 1 0 0 0 0 21 60 79 66 43 24 11 6
36 25 10 6 5 2 0 0 0 1 1 1 0 0 0 0 0 0 2 2 2 1 0 0 0 0 2 4 6 6 4 1 0 0 1 26 71 95 89 71 47 26 17
43 31 13 5 5 2 0 0 2 4 4 2 1 1 1 1 2 7 13 13 9 7 7 7 6 5 5 6 9 11 7 2 0 0 2 27 72 98 97 87 68 45 30
36 28 17 16 14 5 5 8 9 9 10 7 6 8 9 5 4 14 27 29 28 28 30 32 28 21 14 9 13 19 14 4 0 0 4 31 73 97 99 94 81 59 43
23 15 19 38 37 15 17 29 21 19 27 22 17 28 31 17 6 11 29 44 48 48 53 57 51 35 19 10 16 31 27 11 2 1 10 41 80 98 100 96 86 67 50
13 9 22 55 58 31 34 49 37 37 52 48 39 52 58 39 17 12 29 52 57 56 59 61 56 40 20 10 15 32 36 21 7 6 21 56 88 99 99 95 85 65 47
17 15 33 67 72 53 51 59 53 54 67 68 66 73 76 63 38 27 39 53 55 57 60 60 56 46 32 21 17 24 29 24 15 19 38 68 89 96 94 89 78 56 39
36 34 53 81 87 77 70 68 62 65 71 77 82 87 85 76 56 45 52 57 52 54 61 63 58 54 49 38 25 20 21 22 24 34 55 75 86 89 88 84 73 53 37
61 62 75 92 98 93 86 78 68 65 71 79 85 87 82 75 61 50 52 57 52 51 57 59 58 57 55 46 32 24 22 24 29 42 59 74 82 83 83 82 75 60 46
81 84 89 95 98 98 93 84 68 61 68 75 74 73 70 63 51 39 36 42 47 48 50 53 54 55 52 46 39 33 32 32 33 39 50 63 74 78 81 82 78 68 58
91 94 95 94 97 99 94 82 66 62 67 63 53 54 56 46 31 22 18 22 29 30 32 37 44 48 46 41 39 39 41 42 37 36 42 53 64 71 75 80 79 73 67
94 96 96 95 95 96 91 77 63 62 60 44 35 42 44 28 14 9 9 10 11 12 12 16 26 34 32 29 28 31 41 45 41 38 40 48 56 59 63 72 78 76 71
92 92 92 92 91 89 81 67 58 52 41 25 24 36 32 14 5 3 3 3 3 2 3 5 10 15 17 16 13 17 28 36 41 43 43 47 52 51 53 63 74 75 73
82 81 82 85 84 79 69 59 54 46 29 15 20 30 22 7 2 1 1 0 0 0 1 1 2 3 6 6 6 7 13 21 30 40 48 53 55 54 52 58 68 74 75
65 65 68 73 72 66 59 52 50 46 29 16 23 30 21 10 5 3 2 1 0 0 0 0 0 0 1 1 1 2 3 7 12 23 38 51 58 62 60 57 63 72 76
46 49 55 60 58 56 52 47 47 46 33 25 33 41 35 22 12 8 5 3 1 0 0 0 0 0 0 0 0 0 1 1 2 7 16 28 44 60 64 59 58 66 72
29 37 49 56 57 57 55 53 54 50 41 41 51 57 51 36 23 19 14 9 5 2 1 1 1 0 0 0 0 0 1 1 1 1 2 8 22 41 54 56 55 61 68
19 29 45 57 63 65 65 67 68 63 56 58 67 71 64 51 41 36 31 25 17 8 3 2 1 0 0 0 0 0 1 1 1 0 0 2 8 20 35 49 56 61 65
16 25 40 55 64 69 72 74 74 72 67 67 73 76 71 62 56 49 44 39 29 15 5 3 2 1 0 0 0 0 0 0 1 0 0 1 3 9 25 44 58 63 62

GEFSSE_con_prob3kmehi_042.txt.gz
EHI
5 9 13 10 6 4 3 3 3 3 3 3 3 3 3 3 3 3 3 3 3 3 3 3 3 3 3 3 3 3 3 3 3 4 5 5 5 4 3 3 3 3 3
8 15 23 21 13 6 3 3 3 3 3 3 3 3 3 3 3 3 3 3 3 3 3 3 3 3 3 3 3 3 3 3 3 3 4 4 4 3 3 4 3 3 3
17 27 38 41 31 16 7 4 3 3 3 3 3 3 3 3 3 3 3 3 3 3 3 3 3 3 3 3 3 3 3 3 3 3 3 3 3 3 4 4 4 3 3
28 38 53 63 55 35 18 9 5 4 3 3 3 3 3 3 3 3 3 3 3 3 3 2 2 2 3 3 3 3 3 3 3 3 3 3 3 3 4 4 4 3 3
31 44 66 79 73 55 35 19 10 6 4 3 3 3 3 3 3 3 3 3 3 3 2 2 2 1 1 2 2 2 2 2 2 2 2 2 2 3 5 6 5 4 4
30 48 75 88 83 69 50 30 16 9 6 4 3 3 3 3 3 3 3 3 3 3 3 2 2 2 1 1 2 2 1 1 1 1 1 1 1 3 6 7 6 5 4
37 54 79 92 89 76 59 38 21 12 8 5 3 3 3 3 3 3 3 3 3 3 3 3 3 3 3 2 2 2 2 1 1 1 0 0 1 4 8 10 8 6 4
43 57 74 84 84 75 60 39 22 15 10 6 3 3 3 3 3 3 3 3 3 3 3 3 3 3 3 3 3 3 3 3 2 2 1 0 1 6 14 19 16 11 8
33 48 60 64 65 61 49 32 21 15 10 5 4 3 3 3 3 3 3 3 3 3 3 3 4 3 3 3 3 3 3 3 3 3 2 1 2 8 21 30 29 23 18
17 29 44 47 44 39 31 22 16 11 7 4 3 3 3 3 3 3 3 3 3 3 4 4 5 4 3 3 3 3 3 3 3 3 3 3 3 9 23 38 44 41 37
14 18 30 37 33 26 20 14 9 6 4 3 3 3 3 3 3 3 3 3 4 4 5 6 6 5 4 3 3 3 4 3 3 3 3 3 4 7 19 40 56 59 57
22 17 19 26 26 22 16 10 5 4 3 3 3 3 3 3 3 3 3 4 4 5 6 7 7 7 6 5 5 4 5 4 3 3 3 3 4 6 16 38 59 68 69
35 21 12 15 18 17 12 7 4 4 3 3 3 3 3 3 3 3 3 4 4 5 5 6 8 8 8 8 7 6 5 5 4 3 3 3 4 6 14 33 54 66 71
47 28 12 11 14 13 9 5 4 3 3 3 3 4 4 4 4 4 4 4 4 5 4 5 7 7 7 7 8 6 4 4 4 4 4 4 5 5 11 27 46 61 67
52 36 19 16 17 14 9 7 6 6 6 5 5 7 9 9 6 5 5 4 4 4 3 4 4 5 4 5 5 5 4 4 5 6 5 5 5 5 10 20 35 51 59
45 35 27 24 21 16 13 13 15 17 18 16 14 15 17 15 9 6 4 3 2 2 2 2 3 3 3 3 4 4 4 4 5 7 6 5 4 5 9 14 22 36 46
31 29 28 26 23 21 22 25 29 34 36 32 25 23 23 18 10 5 2 1 1 1 1 1 2 2 2 3 3 3 3 3 4 6 6 5 4 4 6 10 15 23 30
22 23 23 20 20 25 30 35 39 41 41 35 26 23 21 16 8 4 1 0 0 0 0 0 1 1 1 1 1 1 1 1 1 3 4 5 5 4 5 9 12 17 20
18 18 17 14 16 23 29 33 34 31 27 23 18 15 13 10 5 2 0 0 0 0 0 0 0 0 0 0 0 0 0 0 0 1 1 2 2 3 5 7 10 13 15
14 12 10 9 11 16 20 21 19 16 12 11 10 7 5 4 2 0 0 0 0 0 0 0 0 0 0 0 0 0 0 0 0 0 0 0 0 1 3 5 8 11 12
8 7 5 6 8 11 12 9 7 6 6 5 4 3 2 1 0 0 0 0 0 0 0 0 0 0 0 0 0 0 0 0 0 0 0 0 0 0 1 3 7 10 12
3 3 3 4 6 6 5 4 3 3 2 2 2 2 1 1 0 0 0 0 0 0 0 0 0 0 0 0 0 0 0 0 0 0 0 0 0 0 0 1 4 9 12
1 1 1 2 2 2 2 3 4 3 1 1 2 2 1 1 1 0 0 0 0 0 0 0 0 0 0 0 0 0 0 0 0 0 0 0 0 0 0 0 2 5 8
0 0 0 0 0 0 1 3 5 4 2 2 2 2 1 1 1 1 0 0 0 0 0 0 0 0 0 0 0 0 0 0 0 0 0 0 0 0 0 0 1 2 4
0 0 0 0 0 0 1 3 4 3 2 3 3 2 1 1 1 1 0 0 0 0 0 0 0 0 0 0 0 0 0 0 0 0 0 0 0 0 0 0 0 1 2
0 0 0 0 0 0 1 2 3 2 2 3 3 2 2 2 1 1 0 0 0 0 0 0 0 0 0 0 0 0 0 0 0 0 0 0 0 0 0 0 0 0 1